TimeCST,TemperatureF,Dew PointF,Humidity,Sea Level PressureIn,VisibilityMPH,Wind Direction,Wind SpeedMPH,Gust SpeedMPH,PrecipitationIn,Events,Conditions,WindDirDegrees,DateUTC
11:35 AM,39.2,32.0,75,29.77,10.0,SE,12.7,-,N/A,,Partly Cloudy,130,2012-11-21 17:35:00
11:55 AM,41.0,33.8,76,29.76,10.0,ESE,11.5,-,N/A,,Clear,110,2012-11-21 17:55:00
12:15 PM,39.2,32.0,75,29.74,10.0,ESE,12.7,-,N/A,,Clear,110,2012-11-21 18:15:00
12:35 PM,39.2,33.8,81,29.73,10.0,ESE,13.8,-,N/A,,Clear,110,2012-11-21 18:35:00
12:55 PM,39.2,33.8,81,29.71,10.0,ESE,11.5,-,N/A,,Clear,110,2012-11-21 18:55:00
1:15 PM,41.0,33.8,76,29.71,10.0,SE,12.7,-,N/A,,Clear,140,2012-11-21 19:15:00
1:35 PM,41.0,33.8,76,29.70,10.0,SE,6.9,-,N/A,,Clear,130,2012-11-21 19:35:00
1:55 PM,42.8,33.8,70,29.69,10.0,ESE,10.4,-,N/A,,Clear,120,2012-11-21 19:55:00
2:15 PM,42.8,33.8,70,29.67,10.0,ESE,11.5,-,N/A,,Clear,110,2012-11-21 20:15:00
2:35 PM,42.8,35.6,76,29.66,10.0,ESE,8.1,-,N/A,,Clear,110,2012-11-21 20:35:00
2:55 PM,42.8,35.6,76,29.65,10.0,ESE,9.2,-,N/A,,Clear,110,2012-11-21 20:55:00
3:15 PM,42.8,35.6,76,29.64,10.0,ESE,10.4,-,N/A,,Clear,110,2012-11-21 21:15:00
3:35 PM,42.8,35.6,76,29.63,10.0,ESE,9.2,-,N/A,,Clear,110,2012-11-21 21:35:00
3:55 PM,42.8,35.6,76,29.63,10.0,ESE,8.1,-,N/A,,Clear,110,2012-11-21 21:55:00
4:15 PM,42.8,35.6,76,29.63,10.0,ESE,8.1,-,N/A,,Clear,110,2012-11-21 22:15:00
4:35 PM,39.2,33.8,81,29.62,10.0,ESE,10.4,-,N/A,,Clear,120,2012-11-21 22:35:00
4:55 PM,39.2,33.8,81,29.61,10.0,ESE,11.5,-,N/A,,Clear,120,2012-11-21 22:55:00
5:15 PM,39.2,33.8,81,29.61,10.0,ESE,10.4,-,N/A,,Clear,120,2012-11-21 23:15:00
5:35 PM,37.4,33.8,87,29.60,10.0,ESE,10.4,-,N/A,,Clear,120,2012-11-21 23:35:00
5:55 PM,37.4,33.8,87,29.59,10.0,ESE,10.4,-,N/A,,Clear,120,2012-11-21 23:55:00
6:15 PM,37.4,33.8,87,29.59,10.0,SE,9.2,-,N/A,,Clear,130,2012-11-22 00:15:00
6:35 PM,37.4,33.8,87,29.59,10.0,SE,8.1,-,N/A,,Clear,130,2012-11-22 00:35:00
6:55 PM,35.6,33.8,93,29.59,10.0,SE,6.9,-,N/A,,Clear,140,2012-11-22 00:55:00
7:15 PM,35.6,32.0,87,29.58,8.0,SE,9.2,-,N/A,,Clear,130,2012-11-22 01:15:00
7:35 PM,35.6,32.0,87,29.57,8.0,SE,9.2,-,N/A,,Clear,140,2012-11-22 01:35:00
7:55 PM,35.6,32.0,87,29.56,7.0,SE,8.1,-,N/A,,Clear,130,2012-11-22 01:55:00
8:15 PM,35.6,30.2,81,29.55,7.0,SSE,8.1,-,N/A,,Clear,150,2012-11-22 02:15:00
8:35 PM,35.6,32.0,87,29.56,7.0,SSE,6.9,-,N/A,,Clear,150,2012-11-22 02:35:00
8:55 PM,33.8,30.2,87,29.55,5.0,SE,5.8,-,N/A,,Clear,130,2012-11-22 02:55:00
9:15 PM,35.6,30.2,81,29.56,5.0,SSE,3.5,-,N/A,,Clear,150,2012-11-22 03:15:00
9:35 PM,33.8,30.2,87,29.56,4.0,Calm,Calm,-,N/A,,Clear,0,2012-11-22 03:35:00
9:55 PM,32.0,28.4,87,29.55,3.0,NNW,4.6,-,N/A,,Clear,330,2012-11-22 03:55:00
10:15 PM,32.0,28.4,87,29.55,3.0,Calm,Calm,-,N/A,,Clear,0,2012-11-22 04:15:00
10:35 PM,30.2,28.4,93,29.54,3.0,Calm,Calm,-,N/A,,Clear,0,2012-11-22 04:35:00
10:55 PM,30.2,26.6,86,29.54,4.0,North,6.9,-,N/A,,Clear,360,2012-11-22 04:55:00
11:15 PM,30.2,28.4,93,29.54,3.0,North,4.6,-,N/A,,Clear,360,2012-11-22 05:15:00
11:35 PM,30.2,28.4,93,29.54,3.0,North,5.8,-,N/A,,Partly Cloudy,350,2012-11-22 05:35:00
11:55 PM,32.0,28.4,87,29.55,4.0,NNW,9.2,-,N/A,,Partly Cloudy,330,2012-11-22 05:55:00